Regional Weather Roundup
Issued by NWS Midland/Odessa, TX

Home | Current Version | Previous Version | Text Only | Print | Product List | Glossary On
Versions: 1 2 3 4 5 6 7 8 9 10 11 12 13 14 15 16 17 18 19 20 21 22 23 24 25 26 27 28 29 30 31 32 33 34 35 36 37 38 39 40 41 42 43 44 45 46 47 48 49 50
000
ASUS44 KMAF 231710
RWRMAF
MIDLAND AREA WEATHER ROUNDUP
NATIONAL WEATHER SERVICE MIDLAND TX
1200 PM CDT TUE SEP 23 2014

...IN SOUTHWEST TEXAS AND SOUTHEAST NEW MEXICO...

CITY           SKY/WX    TMP DP  RH WIND       PRES   REMARKS
ALPINE         MOSUNNY   73  53  50 S7        30.33S
ANDREWS        PTSUNNY   74  63  68 S14       30.22F
ARTESIA        NOT AVBL
BIG SPRING     PTSUNNY   79  66  64 S14       30.23S
CARLSBAD       PTSUNNY   73  67  81 S8        30.19F
DRYDEN           N/A     86  62  44 SE7       30.15F
FORT STOCKTON  SUNNY     78  59  51 S8G17     30.21R
GUAD PASS      CLOUDY    68  58  70 SW9       30.32F
HOBBS          PTSUNNY   72  63  73 SE15      30.23S
MARFA          MOSUNNY   72  52  49 SE15G23   30.31F
MIDLAND AIRPK  MOSUNNY   79  65  62 S13       30.22S
MIDLAND INTL   MOSUNNY   79  64  60 S14       30.21S
ODESSA         MOSUNNY   77  63  61 S14       30.22S
PECOS          PTSUNNY   78  60  54 SE7       30.18S
PRESIDIO       FAIR      80  54  41 E7        30.18S
SEMINOLE       PTSUNNY   73  61  65 S10       30.22F
SNYDER         MOSUNNY   76  66  72 S14G20    30.21R
WINK           PTSUNNY   78  61  55 S16       30.18S
$$
...OTHER STATIONS IN TEXAS...

CITY           SKY/WX    TMP DP  RH WIND       PRES   REMARKS
ABILENE        MOSUNNY   80  58  46 S12       30.19F
AMARILLO       MOSUNNY   78  59  51 SW18G28   30.18F
AUSTIN         PTSUNNY   79  58  48 NE6       30.16F
BROWNSVILLE    PTSUNNY   86  74  67 N6        30.06S
CORPUS CHRISTI MOSUNNY   85  73  67 E13       30.09S
DALLAS FTW     PTSUNNY   75  52  44 SE7       30.20F
DEL RIO        SUNNY     85  62  46 S8        30.12F
EL PASO        MOSUNNY   74  61  63 CALM      30.21S
HOUSTON INT    PTSUNNY   78  57  48 NE9       30.14F
LUBBOCK        MOSUNNY   75  62  64 S14       30.21S
SAN ANGELO     SUNNY     81  66  60 S8        30.18F
SAN ANTONIO    MOSUNNY   83  60  45 E7        30.16S
WACO           SUNNY     79  52  38 VRB5      30.19S
WICHITA FALLS  NOT AVBL
$$
...OTHER LOCATIONS IN NEW MEXICO...

CITY           SKY/WX    TMP DP  RH WIND       PRES   REMARKS
ALAMAGORDO     MOSUNNY   73  63  68 SW7       30.24S
ALBUQUERQUE    MOSUNNY   69  57  65 S9        30.30R
CANNON AFB     SUNNY     75  52  44 SW20      30.23F
CLOVIS           N/A     73  61  64 SW15      30.26S
HOLLOMAN AFB   NOT AVBL
ROSWELL        PTSUNNY   73  61  65 SE9       30.21S
RUIDOSO        PTSUNNY   64  55  72 W6        30.38S
SANTA FE       MOSUNNY   68  56  65 SW12      30.32S
TRUTH OR CONSE MOSUNNY   71  60  68 VRB5      30.26F
TUCUMCARI      MOSUNNY   78  58  49 SW22G28   30.18S
$$



USA.gov is the U.S. government's official web portal to all federal, state and local government web resources and services.